Maricopa West
DateTemperatureDew Point
05/09 - 03:15 AM55.4°45.8°
05/09 - 03:00 AM55.4°45.9°
05/09 - 02:45 AM56.3°45.4°
05/09 - 02:30 AM57.1°45.2°
05/09 - 02:15 AM57.7°45.8°
05/09 - 02:00 AM57.8°45.6°
05/09 - 01:45 AM57.9°45.2°
05/09 - 01:30 AM59.2°45.1°
05/09 - 01:15 AM60.4°45.6°
05/09 - 01:00 AM60.6°46.3°
05/09 - 12:45 AM60.7°46.3°
05/09 - 12:30 AM60.2°45.5°
05/09 - 12:15 AM60.8°45.4°
05/09 - 12:00 AM62.8°45.9°
05/08 - 11:45 PM64.0°46.2°
05/08 - 11:30 PM65.4°46.5°
05/08 - 11:15 PM65.6°45.8°
05/08 - 11:00 PM65.2°45.9°
05/08 - 10:45 PM65.3°45.5°
05/08 - 10:30 PM65.6°45.4°
05/08 - 10:15 PM65.7°45.8°
05/08 - 10:00 PM65.5°46.6°
05/08 - 09:45 PM66.0°46.9°
05/08 - 09:30 PM66.4°46.6°
05/08 - 09:15 PM66.5°46.8°
05/08 - 09:00 PM67.2°47.9°
05/08 - 08:45 PM67.6°49.1°
05/08 - 08:30 PM68.0°51.0°
05/08 - 08:15 PM68.7°52.6°
05/08 - 08:00 PM68.9°54.4°
05/08 - 07:45 PM70.3°56.8°
05/08 - 07:30 PM72.5°57.7°
05/08 - 07:15 PM74.3°58.0°
05/08 - 07:00 PM76.1°59.0°
05/08 - 06:45 PM77.7°58.4°
05/08 - 06:30 PM79.6°57.2°
05/08 - 06:15 PM81.1°56.5°
05/08 - 06:00 PM82.2°57.3°
05/08 - 05:45 PM83.4°57.7°
05/08 - 05:30 PM84.6°59.0°
05/08 - 05:15 PM85.6°58.8°
05/08 - 05:00 PM86.3°57.1°
05/08 - 04:45 PM87.3°58.1°
05/08 - 04:30 PM87.9°55.6°
05/08 - 04:15 PM88.8°55.9°
05/08 - 04:00 PM89.6°56.2°
05/08 - 03:45 PM90.3°57.2°
05/08 - 03:30 PM89.7°57.1°
05/08 - 03:15 PM89.8°56.9°
05/08 - 03:00 PM90.7°57.5°
05/08 - 02:45 PM90.1°55.8°
05/08 - 02:30 PM89.5°57.1°
05/08 - 02:15 PM89.8°56.9°
05/08 - 02:00 PM89.4°59.1°
05/08 - 01:45 PM88.3°59.8°
05/08 - 01:30 PM88.0°59.7°
05/08 - 01:15 PM87.9°59.8°
05/08 - 01:00 PM88.5°59.5°
05/08 - 12:45 PM87.8°58.9°
05/08 - 12:30 PM86.0°58.7°
05/08 - 12:15 PM85.4°59.0°
05/08 - 12:00 PM84.4°59.2°
05/08 - 11:45 AM82.9°58.2°
05/08 - 11:30 AM81.9°58.0°
05/08 - 11:15 AM81.3°57.7°
05/08 - 11:00 AM80.8°57.7°
05/08 - 10:45 AM79.5°56.3°
05/08 - 10:30 AM78.6°54.8°
05/08 - 10:15 AM77.6°53.6°
05/08 - 10:00 AM76.8°54.6°
05/08 - 09:45 AM75.7°55.2°
05/08 - 09:30 AM75.0°54.9°
05/08 - 09:15 AM74.0°54.5°
05/08 - 09:00 AM72.8°53.8°
05/08 - 08:45 AM71.8°53.5°
05/08 - 08:30 AM70.7°54.0°
05/08 - 08:15 AM69.0°52.7°
05/08 - 08:00 AM67.7°53.6°
05/08 - 07:45 AM66.2°53.3°
05/08 - 07:30 AM64.6°52.7°
05/08 - 07:15 AM62.7°52.8°
05/08 - 07:00 AM60.8°53.2°
05/08 - 06:45 AM59.1°53.0°
05/08 - 06:30 AM57.9°52.8°
05/08 - 06:15 AM56.9°52.4°
05/08 - 06:00 AM56.9°52.5°
05/08 - 05:45 AM57.9°53.1°
05/08 - 05:30 AM59.1°53.8°
05/08 - 05:15 AM59.8°54.2°
05/08 - 05:00 AM60.7°54.6°
05/08 - 04:45 AM61.3°54.8°
05/08 - 04:30 AM61.2°54.6°
05/08 - 04:15 AM61.2°54.7°
05/08 - 04:00 AM61.0°54.4°
05/08 - 03:45 AM61.2°54.4°
05/08 - 03:30 AM61.9°54.5°
05/08 - 03:15 AM62.9°55.0°
05/08 - 03:00 AM63.1°55.1°
05/08 - 02:45 AM63.4°55.3°
05/08 - 02:30 AM63.3°55.1°
05/08 - 02:15 AM63.4°55.3°
05/08 - 02:00 AM63.4°55.0°
05/08 - 01:45 AM63.8°55.0°
05/08 - 01:30 AM64.3°55.6°
05/08 - 01:15 AM64.6°55.7°
05/08 - 01:00 AM64.4°55.9°
05/08 - 12:45 AM64.6°56.2°
05/08 - 12:30 AM65.0°56.4°
05/08 - 12:15 AM65.0°56.8°
05/08 - 12:00 AM64.5°56.3°
05/07 - 11:45 PM65.2°55.9°
05/07 - 11:30 PM65.6°56.7°
05/07 - 11:15 PM65.3°55.9°
05/07 - 11:00 PM65.4°55.5°
05/07 - 10:45 PM66.0°55.6°
05/07 - 10:30 PM65.5°55.4°
05/07 - 10:15 PM64.8°55.2°
05/07 - 10:00 PM64.5°54.8°
05/07 - 09:45 PM64.8°54.6°
05/07 - 09:30 PM65.3°54.8°
05/07 - 09:15 PM66.1°55.3°
05/07 - 09:00 PM67.3°56.8°
05/07 - 08:45 PM69.1°58.3°
05/07 - 08:30 PM70.3°59.6°
05/07 - 08:15 PM70.5°60.1°
05/07 - 08:00 PM71.3°61.2°
05/07 - 07:45 PM73.0°62.5°
05/07 - 07:30 PM74.5°63.4°
05/07 - 07:15 PM75.8°64.3°
05/07 - 07:00 PM77.4°65.1°
05/07 - 06:45 PM78.8°66.4°
05/07 - 06:30 PM80.4°66.4°
05/07 - 06:15 PM81.8°65.1°
05/07 - 06:00 PM82.9°64.5°
05/07 - 05:45 PM83.6°63.2°
05/07 - 05:30 PM84.4°62.8°
05/07 - 05:15 PM84.8°62.2°
05/07 - 05:00 PM85.2°61.7°
05/07 - 04:45 PM85.6°61.8°
05/07 - 04:30 PM86.0°61.7°
05/07 - 04:15 PM86.6°62.0°
05/07 - 04:00 PM87.3°62.7°
05/07 - 03:45 PM87.5°62.3°
05/07 - 03:30 PM87.5°62.6°
05/07 - 03:15 PM87.1°62.7°
05/07 - 03:00 PM87.2°62.1°
05/07 - 02:45 PM86.9°62.4°
05/07 - 02:30 PM86.4°61.6°
05/07 - 02:15 PM86.3°61.2°
05/07 - 02:00 PM86.8°61.2°
05/07 - 01:45 PM85.6°61.5°
05/07 - 01:30 PM85.6°61.3°
05/07 - 01:15 PM85.1°60.9°
05/07 - 01:00 PM84.5°60.7°
05/07 - 12:45 PM84.4°60.9°
05/07 - 12:30 PM83.1°60.2°
05/07 - 12:15 PM82.6°60.4°
05/07 - 12:00 PM81.7°60.3°
05/07 - 11:45 AM80.6°59.7°
05/07 - 11:30 AM80.1°60.4°
05/07 - 11:15 AM78.9°59.5°
05/07 - 11:00 AM78.4°60.3°
05/07 - 10:45 AM77.5°59.6°
05/07 - 10:30 AM76.4°59.3°
05/07 - 10:15 AM75.4°59.0°
05/07 - 10:00 AM74.7°59.4°
05/07 - 09:45 AM74.0°59.2°
05/07 - 09:30 AM72.8°59.0°
05/07 - 09:15 AM72.1°58.5°
05/07 - 09:00 AM71.1°58.4°
05/07 - 08:45 AM70.1°57.5°
05/07 - 08:30 AM69.0°57.0°
05/07 - 08:15 AM67.6°56.3°
05/07 - 08:00 AM66.4°55.7°
05/07 - 07:45 AM64.9°55.0°
05/07 - 07:30 AM62.8°54.3°
05/07 - 07:15 AM60.6°53.3°
05/07 - 07:00 AM59.0°52.1°
05/07 - 06:45 AM57.8°51.2°
05/07 - 06:30 AM56.8°50.4°
05/07 - 06:15 AM56.1°49.9°
05/07 - 06:00 AM55.4°49.4°
05/07 - 05:45 AM54.8°48.8°
05/07 - 05:30 AM54.7°48.5°
05/07 - 05:15 AM54.9°48.7°
05/07 - 05:00 AM55.1°49.0°
05/07 - 04:45 AM54.7°48.7°
05/07 - 04:30 AM54.3°48.9°
05/07 - 04:15 AM54.0°48.7°
05/07 - 04:00 AM54.0°48.3°
05/07 - 03:45 AM54.3°48.4°